Le nostre stazioni meteo in Italia

Pubblicità
Il mio iltempo24.it
Reggio Calabria, Italia (16422): Temperatura & dewpoint: 11.02.2019 13:00:00 - 17.02.2019 13:00:00 (CET)Reggio Calabria, Italia (16422): velocità del vento: 11.02.2019 13:00:00 - 17.02.2019 13:00:00 (CET)Reggio Calabria, Italia (16422): direzione del vento: 11.02.2019 13:00:00 - 17.02.2019 13:00:00 (CET)Reggio Calabria, Italia (16422): visibility: 11.02.2019 13:00:00 - 17.02.2019 13:00:00 (CET)
Data & Tempo tt [°C] td [°C] ff [km/h] ff [kn] dd vv [km]
17.02.2019 13:00:00 15,0 7,0 26 14 N 10
17.02.2019 12:00:00 14,0 7,0 21 11 N 10
17.02.2019 11:00:00 - - - - - -
17.02.2019 10:00:00 13,0 6,0 16 9 NNE 10
17.02.2019 09:00:00 12,0 6,0 13 7 NNE 10
17.02.2019 08:00:00 11,0 6,0 13 7 NE 10
17.02.2019 07:00:00 9,0 5,0 13 7 NE 10
17.02.2019 06:00:00 10,0 5,0 9 5 NE 10
17.02.2019 05:00:00 - - - - - -
17.02.2019 04:00:00 - - - - - -
17.02.2019 03:00:00 - - - - - -
17.02.2019 02:00:00 - - - - - -
17.02.2019 01:00:00 - - - - - -
17.02.2019 00:00:00 10,0 3,0 9 5 NE 10
16.02.2019 23:00:00 8,0 4,0 11 6 NE 10
16.02.2019 22:00:00 9,0 4,0 9 5 ENE 10
16.02.2019 21:00:00 9,0 3,0 8 4 ENE 10
16.02.2019 20:00:00 9,0 2,0 11 6 ENE 10
16.02.2019 19:00:00 9,0 2,0 9 5 NE 10
16.02.2019 18:00:00 11,0 2,0 11 6 NNE 10
16.02.2019 17:00:00 13,0 2,0 16 9 N 10
16.02.2019 16:00:00 14,0 2,0 18 10 N 10
16.02.2019 15:00:00 14,0 2,0 22 12 N 10
16.02.2019 14:00:00 13,0 2,0 22 12 NNO 10
16.02.2019 13:00:00 14,0 2,0 24 13 NNO 10
16.02.2019 12:00:00 14,0 3,0 21 11 N 10
16.02.2019 11:00:00 13,0 2,0 16 9 N 10
16.02.2019 10:00:00 13,0 1,0 16 9 NNE 10
16.02.2019 09:00:00 11,0 1,0 22 12 NNE 10
16.02.2019 08:00:00 7,0 0,0 11 6 NE 10
16.02.2019 07:00:00 5,0 1,0 9 5 ENE 10
16.02.2019 06:00:00 5,0 1,0 11 6 E 10
16.02.2019 05:00:00 - - - - - -
16.02.2019 04:00:00 - - - - - -
16.02.2019 03:00:00 - - - - - -
16.02.2019 02:00:00 - - - - - -
16.02.2019 01:00:00 - - - - - -
16.02.2019 00:00:00 6,0 3,0 9 5 N 10
15.02.2019 23:00:00 6,0 3,0 11 6 NE 10
15.02.2019 22:00:00 7,0 5,0 9 5 NE 10
15.02.2019 21:00:00 8,0 6,0 5 3 E 10
15.02.2019 20:00:00 9,0 6,0 13 7 NNO 10
15.02.2019 19:00:00 9,0 5,0 21 11 ENE 10
15.02.2019 18:00:00 13,0 4,0 11 6 N 10
15.02.2019 17:00:00 13,0 4,0 15 8 N 10
15.02.2019 16:00:00 14,0 5,0 16 9 N 10
15.02.2019 15:00:00 14,0 5,0 21 11 N 10
15.02.2019 14:00:00 16,0 5,0 22 12 NNO 10
15.02.2019 13:00:00 15,0 7,0 24 13 N 10
15.02.2019 12:00:00 16,0 7,0 24 13 N 10
15.02.2019 11:00:00 16,0 7,0 22 12 NNO 10
15.02.2019 10:00:00 14,0 7,0 22 12 NNO 10
15.02.2019 09:00:00 13,0 7,0 21 11 NNO 10
15.02.2019 08:00:00 12,0 8,0 16 9 N 10
15.02.2019 07:00:00 12,0 8,0 16 9 N 10
15.02.2019 06:00:00 12,0 7,0 16 9 N 10
15.02.2019 05:00:00 - - - - - -
15.02.2019 04:00:00 - - - - - -
15.02.2019 03:00:00 - - - - - -
15.02.2019 02:00:00 - - - - - -
15.02.2019 01:00:00 - - - - - -
15.02.2019 00:00:00 12,0 6,0 16 9 N 10
14.02.2019 23:00:00 11,0 5,0 16 9 N 10
14.02.2019 22:00:00 12,0 6,0 18 10 N 10
14.02.2019 21:00:00 12,0 6,0 22 12 N 10
14.02.2019 20:00:00 12,0 6,0 28 15 N 10
14.02.2019 19:00:00 12,0 5,0 29 16 N 10
14.02.2019 18:00:00 12,0 4,0 29 16 N 10
14.02.2019 17:00:00 12,0 3,0 24 13 N 10
14.02.2019 16:00:00 13,0 2,0 26 14 NNO 10
14.02.2019 15:00:00 14,0 1,0 34 18 N 10
14.02.2019 14:00:00 14,0 1,0 34 18 N 10
14.02.2019 13:00:00 14,0 0,0 31 17 N 10
14.02.2019 12:00:00 13,0 0,0 35 19 N 10
14.02.2019 11:00:00 13,0 0,0 35 19 N 10
14.02.2019 10:00:00 12,0 0,0 29 16 N 10
14.02.2019 09:00:00 11,0 -1,0 22 12 NNE 10
14.02.2019 08:00:00 8,0 -1,0 13 7 NE 10
14.02.2019 07:00:00 7,0 -2,0 11 6 NE 10
14.02.2019 06:00:00 7,0 -2,0 13 7 NNE 10
14.02.2019 05:00:00 - - - - - -
14.02.2019 04:00:00 - - - - - -
14.02.2019 03:00:00 - - - - - -
14.02.2019 02:00:00 - - - - - -
14.02.2019 01:00:00 - - - - - -
14.02.2019 00:00:00 9,0 -6,0 22 12 NNE 10
13.02.2019 23:00:00 9,0 -5,0 34 18 N 10
13.02.2019 22:00:00 9,0 -5,0 24 13 NNE 10
13.02.2019 21:00:00 9,0 -7,0 31 17 NNE 10
13.02.2019 20:00:00 9,0 -9,0 34 18 NNE 10
13.02.2019 19:00:00 10,0 -6,0 26 14 NNE 10
13.02.2019 18:00:00 11,0 -5,0 29 16 N 10
13.02.2019 17:00:00 11,0 -3,0 35 19 NNO 10
13.02.2019 16:00:00 11,0 -5,0 39 21 NNO 10
13.02.2019 15:00:00 10,0 -4,0 35 19 N 10
13.02.2019 14:00:00 11,0 -4,0 41 22 NNO 10
13.02.2019 13:00:00 10,0 -3,0 42 23 NNO 10
13.02.2019 12:00:00 12,0 -2,0 41 22 N 10
13.02.2019 11:00:00 11,0 -3,0 41 22 N 10
13.02.2019 10:00:00 10,0 -3,0 41 22 N 10
13.02.2019 09:00:00 10,0 -2,0 35 19 N 10
13.02.2019 08:00:00 10,0 -3,0 34 18 N 10
13.02.2019 07:00:00 10,0 -4,0 44 24 N 10
13.02.2019 06:00:00 9,0 -3,0 31 17 N 10
13.02.2019 05:00:00 - - - - - -
13.02.2019 04:00:00 - - - - - -
13.02.2019 03:00:00 - - - - - -
13.02.2019 02:00:00 - - - - - -
13.02.2019 01:00:00 - - - - - -
13.02.2019 00:00:00 11,0 -2,0 31 17 N 10
12.02.2019 23:00:00 11,0 -2,0 26 14 N 10
12.02.2019 22:00:00 11,0 -1,0 29 16 N 10
12.02.2019 21:00:00 11,0 1,0 29 16 N 10
12.02.2019 20:00:00 11,0 3,0 31 17 N 10
12.02.2019 19:00:00 12,0 2,0 37 20 NNO 10
12.02.2019 18:00:00 12,0 3,0 41 22 NNO 10
12.02.2019 17:00:00 13,0 1,0 35 19 N 10
12.02.2019 16:00:00 13,0 1,0 34 18 NNO 10
12.02.2019 15:00:00 12,0 2,0 28 15 NNO 10
12.02.2019 14:00:00 13,0 4,0 29 16 N 10
12.02.2019 13:00:00 13,0 4,0 24 13 N 10
12.02.2019 12:00:00 13,0 4,0 16 9 N 10
12.02.2019 11:00:00 11,0 4,0 15 8 NNE 10
12.02.2019 10:00:00 10,0 7,0 5 3 ENE 10
12.02.2019 09:00:00 9,0 6,0 9 5 NNE 10
12.02.2019 08:00:00 7,0 6,0 8 4 ESE 10
12.02.2019 07:00:00 7,0 4,0 5 3 N 10
12.02.2019 06:00:00 7,0 4,0 9 5 - 10
12.02.2019 05:00:00 - - - - - -
12.02.2019 04:00:00 - - - - - -
12.02.2019 03:00:00 - - - - - -
12.02.2019 02:00:00 - - - - - -
12.02.2019 01:00:00 - - - - - -
12.02.2019 00:00:00 10,0 4,0 28 15 N 10
11.02.2019 23:00:00 13,0 3,0 29 16 NO 10
11.02.2019 22:00:00 13,0 3,0 26 14 NO 10
11.02.2019 21:00:00 13,0 4,0 24 13 NNO 10
11.02.2019 20:00:00 12,0 7,0 28 15 NO 10
11.02.2019 19:00:00 14,0 6,0 24 13 NNO 10
11.02.2019 18:00:00 14,0 6,0 24 13 NNO 10
11.02.2019 17:00:00 15,0 8,0 18 10 NNO 10
11.02.2019 16:00:00 16,0 8,0 34 18 N 10
11.02.2019 15:00:00 18,0 8,0 22 12 NO 10
11.02.2019 14:00:00 18,0 7,0 22 12 NO 10
11.02.2019 13:00:00 19,0 7,0 21 11 NNO 10

tt = Temperatura
td = dewpoint
ff = velocità del vento
dd = direzione del vento
vv = visibility

Stazioni seguenti

WeatherPro
AMSI
MeteoEarth